TimeCDT,TemperatureF,Dew PointF,Humidity,Sea Level PressureIn,VisibilityMPH,Wind Direction,Wind SpeedMPH,Gust SpeedMPH,PrecipitationIn,Events,Conditions,WindDirDegrees,DateUTC
12:35 PM,76.3,69.3,79,29.93,-9999.0,NNW,5.8,-,N/A,,Unknown,340,2013-07-08 17:35:00
12:55 PM,78.6,68.9,72,29.93,10.0,Calm,Calm,-,N/A,,Overcast,0,2013-07-08 17:55:00
1:15 PM,73.4,69.1,86,29.93,10.0,Calm,Calm,-,N/A,,Overcast,0,2013-07-08 18:15:00
1:35 PM,75.4,69.4,82,29.93,10.0,ENE,6.9,-,N/A,,Overcast,60,2013-07-08 18:35:00
1:55 PM,72.5,68.4,87,29.94,10.0,ENE,8.1,-,N/A,,Overcast,70,2013-07-08 18:55:00
2:15 PM,74.5,68.2,81,29.94,10.0,NNE,6.9,-,N/A,,Overcast,30,2013-07-08 19:15:00
2:35 PM,75.0,69.1,82,29.94,10.0,ENE,6.9,-,N/A,,Overcast,70,2013-07-08 19:35:00
2:55 PM,75.2,68.9,81,29.94,10.0,ESE,9.2,-,N/A,,Mostly Cloudy,110,2013-07-08 19:55:00
3:15 PM,74.3,68.4,82,29.94,10.0,East,6.9,-,N/A,,Mostly Cloudy,90,2013-07-08 20:15:00
3:35 PM,75.4,68.4,79,29.95,10.0,East,8.1,-,N/A,,Scattered Clouds,90,2013-07-08 20:35:00
3:55 PM,75.2,67.8,78,29.95,10.0,ENE,8.1,-,N/A,,Scattered Clouds,70,2013-07-08 20:55:00
4:15 PM,75.7,68.0,77,29.94,10.0,East,9.2,-,N/A,,Clear,90,2013-07-08 21:15:00
4:35 PM,75.2,67.6,77,29.94,10.0,East,5.8,-,N/A,,Clear,100,2013-07-08 21:35:00
4:55 PM,75.6,68.0,77,29.94,10.0,East,4.6,-,N/A,,Clear,90,2013-07-08 21:55:00
5:15 PM,75.2,67.8,78,29.94,10.0,SE,4.6,-,N/A,,Clear,130,2013-07-08 22:15:00
5:35 PM,75.6,68.0,77,29.94,10.0,SSE,3.5,-,N/A,,Clear,150,2013-07-08 22:35:00
5:55 PM,75.2,67.8,78,29.95,10.0,SE,3.5,-,N/A,,Clear,140,2013-07-08 22:55:00
6:15 PM,75.2,67.5,77,29.95,10.0,ESE,4.6,-,N/A,,Clear,110,2013-07-08 23:15:00
6:35 PM,74.5,67.3,78,29.95,10.0,East,4.6,-,N/A,,Clear,100,2013-07-08 23:35:00
6:55 PM,74.1,67.3,79,29.95,10.0,Calm,Calm,-,N/A,,Clear,0,2013-07-08 23:55:00
7:15 PM,73.2,67.1,81,29.95,10.0,SE,5.8,-,N/A,,Clear,130,2013-07-09 00:15:00
7:35 PM,72.0,67.1,85,29.95,10.0,Calm,Calm,-,N/A,,Clear,0,2013-07-09 00:35:00
7:55 PM,72.1,67.3,85,29.96,10.0,Calm,Calm,-,N/A,,Clear,0,2013-07-09 00:55:00
8:15 PM,71.6,67.3,86,29.96,10.0,Calm,Calm,-,N/A,,Clear,0,2013-07-09 01:15:00
8:35 PM,70.5,67.5,90,29.97,10.0,Calm,Calm,-,N/A,,Clear,0,2013-07-09 01:35:00
8:55 PM,69.1,67.3,94,29.98,10.0,Calm,Calm,-,N/A,,Clear,0,2013-07-09 01:55:00
9:15 PM,67.6,66.7,97,29.99,10.0,Calm,Calm,-,N/A,,Clear,0,2013-07-09 02:15:00
9:35 PM,67.1,66.4,98,29.99,7.0,Calm,Calm,-,N/A,,Clear,0,2013-07-09 02:35:00
9:55 PM,66.2,65.7,98,29.99,7.0,Calm,Calm,-,N/A,,Clear,0,2013-07-09 02:55:00
10:15 PM,66.4,65.8,98,30.00,7.0,Calm,Calm,-,N/A,,Clear,0,2013-07-09 03:15:00
10:35 PM,65.1,64.6,98,29.99,7.0,Calm,Calm,-,N/A,,Clear,0,2013-07-09 03:35:00
10:55 PM,64.8,64.2,98,29.99,3.0,Calm,Calm,-,N/A,,Clear,0,2013-07-09 03:55:00
11:15 PM,64.4,63.9,98,30.00,7.0,Calm,Calm,-,N/A,,Clear,0,2013-07-09 04:15:00
11:35 PM,64.4,63.7,98,30.00,10.0,Calm,Calm,-,N/A,,Clear,0,2013-07-09 04:35:00
11:55 PM,63.5,63.0,98,30.00,1.8,Calm,Calm,-,N/A,,Unknown,0,2013-07-09 04:55:00